Regional Weather Roundup
Issued by NWS Charleston, SC

Current Version | Previous Version | Text Only | Print | Product List | Glossary Off
Versions: 1 2 3 4 5 6 7 8 9 10 11 12 13 14 15 16 17 18 19 20 21 22 23 24 25 26 27 28 29 30 31 32 33 34 35 36 37 38 39 40 41 42 43 44 45 46 47 48 49 50

524
ASUS42 KCHS 281527
RWRCHS

REGIONAL WEATHER ROUNDUP
NATIONAL WEATHER SERVICE CHARLESTON SC
1100 AM EDT SUN MAY 28 2017

NOTE: "FAIR" INDICATES FEW OR NO CLOUDS BELOW 12,000 FEET WITH NO
SIGNIFICANT WEATHER AND/OR OBSTRUCTIONS TO VISIBILITY.

NOT ALL STATIONS ARE QUALITY CONTROLLED. USE DATA WITH CAUTION...
ESPECIALLY DEWPOINT OBSERVATIONS.

SCZ027-030-031-034>040-042>050-281600-
...SOUTHEAST SOUTH CAROLINA...

CITY           SKY/WX    TMP DP  RH WIND       PRES   REMARKS
N CHARLESTON   CLOUDY    84  69  60 W9        29.93F
WATERFRONT PRK   N/A     84  71  65 W8        29.94R
JOHNS ISLAND   FAIR      86  72  62 SW12      29.94F HX  92
PINOPOLIS        N/A     81  72  74 W16       29.86F
MONCKS CORNER  FAIR      82  68  61 SW9       29.92F
SUMMERVILLE    FAIR      82  70  65 W9        29.95S
BEAUFORT MCAS  MOSUNNY   84  71  65 SW13      29.96F
BEAUFORT ARPT  FAIR      84  70  61 W8        29.96S
HILTON HEAD IS SUNNY     84  70  61 W12       29.97F
WALTERBORO     PTSUNNY   81  70  69 SW9       29.94S
ALLENDALE      FAIR      84  72  65 SW8       29.93S

...SOUTHERN MIDLANDS AND PEE DEE...

CITY           SKY/WX    TMP DP  RH WIND       PRES   REMARKS
GEORGETOWN     FAIR      84  70  61 W6G18     29.92F
KINGSTREE      FAIR      84  66  54 SW6       29.88F
ORANGEBURG     CLOUDY    83  68  60 W7        29.91F
BARNWELL       FAIR      84  72  65 SW10G16   29.93S
AIKEN          FAIR      79  64  61 SW12      29.95F
MANNING        FAIR      84  45  24 W13       29.89F
COLUMBIA       CLOUDY    81  64  56 SW8       29.89R
SUMTER         MOSUNNY   86  64  47 W13       29.86F
FLORENCE       SUNNY     85  65  51 W14G24    29.89F
MYRTLE BEACH   SUNNY     84  72  65 W20       29.93R
N MYRTLE BEACH SUNNY     85  70  60 W9G20     29.91R

$$

GAZ063-065-086>088-099>101-113>116-118-119-134>141-150-281600-
...SOUTHEAST GEORGIA...

CITY           SKY/WX    TMP DP  RH WIND       PRES   REMARKS
SAVANNAH ARPT  PTSUNNY   89  68  49 W17       29.98S HX  93
HUNTER AAF     SUNNY     87  75  67 W9        29.95F HX  96
FORT STEWART   MOSUNNY   86  71  59 W14       29.97S HX  91
STATESBORO     CLOUDY    83  72  69 W12       29.97F
SYLVANIA       CLOUDY    83  74  73 W6        29.97F
CLAXTON        FAIR      85  77  75 SW9G18    29.98F HX  96

...CSRA...CENTRAL AND FAR SOUTHEAST GEORGIA...

CITY           SKY/WX    TMP DP  RH WIND       PRES   REMARKS
THOMSON        PTSUNNY   79  67  66 W6        30.00R
AUGUSTA-BUSH   PTSUNNY   84  68  58 SW7       29.92S
AUGUSTA-DANIEL PTSUNNY   81  64  56 SW3       29.93F
SWAINSBORO     FAIR      81  72  74 W12       29.99F
VIDALIA        PTSUNNY   82  73  74 W12       30.00S
EASTMAN        PTSUNNY   82  64  54 W10       30.03F
HAZLEHURST     PTSUNNY   84  75  72 W7G16     30.00S HX  92
ALMA           MOSUNNY   83  72  69 W9        30.02S
WAYCROSS       PTSUNNY   84  76  78 W9        30.02F HX  93
JESUP          PTSUNNY   86  70  58 W8G20     30.00S HX  90
BAXLEY         FAIR      86  77  74 W9        30.00F HX  97
BRUNSWICK      SUNNY     86  73  66 W13G21    30.01S HX  93
SAINT SIMONS   SUNNY     86  70  58 W12       30.00S HX  90

$$

SCZ027-028-034-036>038-045-046-048>050-GAZ119-141-281600-
...LAKE AND SUPPLEMENTAL COASTAL OBSERVATIONS...

STATION/POSITION TIME  TEMP    WIND        PRES    WAVE   SWELL
                       AIR SEA DIR/SP/G            HT/PER HT/PER/DIR
                 (UTC) (F)     (DEG/KT/KT) (MB)    (FT/S) (FT/S/D)
WINYAH BAY       1445   83     270/ 12     1013.0S
LAKE MURRAY      1450   76     230/  7/ 12 1011.5F
ACE BASIN NERRS  1445   82     250/  4     1015.0S
FORT PULASKI     1500   83     290/ 11/ 13 1015.2
SAPELO ISLAND    1430   83     270/ 11     1016.0S

$$

ANZ835-935-AMZ111-154-330-350-352-354-370-450-454-472-281600-
...C-MAN AND BUOY OBSERVATIONS...

STATION/POSITION TIME  TEMP    WIND        PRES    WAVE   SWELL
                       AIR SEA DIR/SP/G            HT/PER HT/PER/DIR
                 (UTC) (F)     (DEG/KT/KT) (MB)    (FT/S) (FT/S/D)
BUOY 41004       1510   77 75  250/ 12/ 16 1014.5
BUOY 41008       1450   78 78  230/  8/  8 1015.3F   2/ 3   2/ 80/ 7
FOLLY BEACH CMAN 1500   83     250/ 11/ 14 1014.9R
CAPERS NEARSHORE 1508   84 77  260/ 10/ 16 1013.8S
FRIPP NEARSHORE  1508   80 78  260/  8/ 12 1014.8R


STATION/POSITION TIME  TEMP    WIND        PRES    WAVE   SWELL
                       AIR SEA DIR/SP/G            HT/PER HT/PER/DIR
                 (UTC) (F)     (DEG/KT/KT) (MB)    (FT/S) (FT/S/D)
5E ST. MARYS GA  1500      79                N/A     2/ 7
FRYING PAN BUOY  1510   76 75  240/ 14/ 17 1013.3
BUOY 41025       1450   76 77  230/ 12/ 14 1011.7R   3/ 6   2/210/ 6
CAPE LOOKOUT NC  1500   78     240/ 10/ 13 1011.9R
BUOY 41002       1450   77 77  230/ 17/ 21 1015.0R   4/ 4   2/160/ 8
BUOY 41010       1510   81 80  230/  6/  8 1017.0
ST AUGUSTINE FL  1500   80 76  280/  7/ 10 1017.8R


$$




USA.gov is the U.S. government's official web portal to all federal, state and local government web resources and services.